TIME,DELAY(SENSOR),PRES,T(CTD),SAL,OXYGEN,RAWTEMP,T(OPTODE),TCPHASE,FLUOR,BETA(BETA700),BETA(BETA412),BETA(BETA440),CDOM,C(CSC),ED(ED412.40),ED(ED444.00),ED(ED489.70),ED(ED554.30),LU(LU411.80),LU(LU443.40),LU(LU489.60),LU(LU554.10),COMP,TILTX,TILTX(TILTY),CHECK
1335476142,5810,496.8299865722656000,7.0774998664855960,34.1749992370605500,73.3993301391601600,585.5933227539062000,7.0486769676208500,49.4975700378418000,52,105,90,79,82,15279,2147753645,2147421083,2148000219,2147871972,2147627995,2147080685,2148238829,2147204315,2330,4,13,55104
1335476257,5809,486.2699890136719000,7.0970997810363770,34.1693000793457000,75.3004531860351600,584.2664184570312000,7.0913538932800290,49.2459182739257800,52,106,88,81,80,15278,2147751981,2147421568,2148001901,2147874422,2147627931,2147080822,2148243739,2147204425,3512,4,13,39621
1335476374,5811,475.6400146484375000,7.3285999298095700,34.1614990234375000,83.0234527587890600,577.7371215820312000,7.3011231422424320,48.2266807556152340,52,110,92,82,81,15278,2147749458,2147422427,2148000996,2147875584,2147626861,2147080557,2148237842,2147207058,359,4,13,15565
1335476501,5809,464.2699890136719000,7.4102001190185550,34.1673011779785160,85.2016067504882800,574.5067138671875000,7.4047641754150390,47.9287300109863300,51,109,89,80,80,15273,2147746797,2147422966,2148000960,2147873426,2147626907,2147081298,2148243931,2147205824,443,4,13,51302
1335476628,5805,453.5400085449219000,7.5264000892639160,34.1431007385253900,100.1949996948242200,571.1983032226562000,7.5108132362365720,46.2222404479980500,51,110,91,79,81,15271,2147747227,2147425398,2148003008,2147872914,2147627053,2147088219,2148241819,2147206116,339,4,13,56675
1335476770,5808,442.9400024414062500,7.6869001388549805,34.1397018432617200,109.1980972290039000,566.3499755859375000,7.6660480499267580,45.2149581909179700,51,110,90,81,81,15271,2147744192,2147423396,2148001910,2147873088,2147624667,2147085202,2148242185,2147203108,780,4,13,2798
1335476933,5809,431.6400146484375000,7.9430999755859375,34.1427993774414060,113.7770996093750000,558.4368286132812000,7.9189801216125490,44.6282081604003900,51,109,92,82,80,15272,2147749321,2147426688,2148000128,2147870619,2147625353,2147086994,2148239058,2147205065,877,4,13,28551
1335477080,5808,420.5299987792969000,8.1965999603271480,34.1314010620117200,122.7341003417968800,549.5623779296875000,8.2020082473754880,43.6152801513671900,50,115,89,81,79,15272,2147744868,2147424502,2148000173,2147868763,2147622381,2147085156,2148236269,2147205476,405,4,13,4562
1335477219,5804,409.2600097656250000,8.4811000823974610,34.1277999877929700,135.2160949707031200,541.0438842773438000,8.4730720520019530,42.3348503112793000,50,109,91,81,77,15273,2147743286,2147422939,2148001435,2147871195,2147623104,2147089435,2148226185,2147205348,2992,4,13,5426
1335477366,5804,396.2000122070312500,8.5924997329711910,34.1273002624511700,142.9160003662109400,536.6317749023438000,8.6132411956787110,41.5946388244628900,50,109,88,82,77,15272,2147745499,2147424758,2148001060,2147871250,2147620242,2147095049,2148234651,2147206134,3121,4,13,52149
1335477481,5809,384.4400024414062500,8.8708000183105470,34.1338005065918000,147.5502014160156200,528.8610839843750000,8.8597335815429690,41.0760688781738300,50,111,88,81,77,15272,2147742646,2147423917,2147998948,2147875373,2147620352,2147092937,2148231296,2147209042,443,4,13,47474
1335477584,5806,373.9599914550781000,9.0066995620727540,34.1332015991210940,150.8038024902343800,524.4509887695312000,8.9994163513183600,40.7328300476074200,50,110,86,81,76,15265,2147741531,2147425307,2147998500,2147869531,2147618459,2147102656,2148231552,2147207780,697,3,13,58035
1335477690,5809,363.2799987792969000,9.2767000198364260,34.1327018737793000,161.4062042236328000,515.2907104492188000,9.2890872955322270,39.7414207458496100,50,110,88,81,76,15270,2147740397,2147422509,2147997979,2147871341,2147618633,2147095990,2148233618,2147206555,1017,4,13,50198
1335477805,5807,351.3399963378906000,9.7421998977661130,34.1431999206543000,167.7543029785156200,501.6690979003906000,9.7187032699584960,39.0311889648437500,49,111,91,82,75,15271,2147739410,2147425225,2147999753,2147869522,2147616502,2147098386,2148224219,2147208146,1027,3,14,42500
1335477908,5810,340.2600097656250000,9.9581003189086910,34.1491012573242200,170.1313018798828000,493.1041870117187500,9.9881629943847660,38.7115402221679700,50,109,90,80,75,15270,2147742052,2147421979,2148003264,2147875382,2147614637,2147102134,2148224493,2147208100,1534,4,14,31258
1335478026,5807,328.5000000000000000,10.5187997817993160,34.1641006469726560,178.9956054687500000,476.4155883789062500,10.5117902755737300,37.8003883361816400,50,108,90,80,74,15271,2147738102,2147424100,2147999606,2147872786,2147614436,2147104585,2148222491,2147209709,3377,4,14,16860
1335478165,5812,317.1700134277344000,10.8879995346069340,34.1688003540039060,183.2012939453125000,464.4151916503906000,10.8872203826904300,37.3130302429199200,49,111,90,80,74,15272,2147736073,2147425088,2148002258,2147871707,2147609197,2147109778,2148220013,2147207286,363,4,14,64348
1335478306,5807,306.9400024414062500,11.1772003173828120,34.1842994689941400,190.5829010009765600,455.5386962890625000,11.1643495559692380,36.6771011352539060,50,110,89,81,74,15272,2147738185,2147426194,2148003392,2147875346,2147607908,2147112749,2148222372,2147206884,3301,3,14,35683
1335478493,5806,296.3500061035156000,11.6015996932983400,34.2009010314941400,201.7835998535156200,441.9259948730469000,11.5884704589843750,35.7527503967285160,48,112,89,81,71,15267,2147732973,2147426166,2148005302,2147871085,2147605485,2147115748,2148217197,2147209197,1830,3,14,5164
1335478684,5808,284.5499877929687500,12.0156002044677730,34.2267990112304700,199.7333068847656200,427.9888000488281000,12.0216598510742190,35.6534004211425800,49,110,89,81,71,15268,2147731785,2147429787,2148023771,2147872978,2147601060,2147120950,2148227510,2147211346,1036,4,14,27796
1335478823,5808,273.5599975585937500,12.5172004699707030,34.2566986083984400,201.6732940673828000,412.2043151855469000,12.5110597610473630,35.2843589782714840,49,112,91,82,71,15265,2147729865,2147429860,2148029184,2147871296,2147600420,2147123520,2148223808,2147211181,2179,4,14,14571
1335478957,5808,261.2600097656250000,12.9517002105712890,34.2881011962890600,206.0184936523437500,398.1978149414062500,12.9443597793579100,34.8049392700195300,48,109,92,81,71,15267,2147731419,2147440137,2148054802,2147871488,2147599680,2147128914,2148236946,2147212827,173,4,14,11463
1335479072,5806,249.7299957275390600,13.5248003005981450,34.2697982788085940,188.2171020507812500,379.5580139160156000,13.5196695327758790,35.6156616210937500,50,106,90,81,70,15268,2147727296,2147444891,2148066139,2147873252,2147597595,2147139419,2148239716,2147215113,858,3,13,32951
1335479189,5810,238.7400054931640600,14.1061000823974610,34.3053016662597660,185.9246978759765600,359.2833862304687500,14.1439304351806640,35.4516296386718750,50,106,88,79,70,15268,2147725394,2147455241,2148083666,2147872539,2147597833,2147146761,2148243739,2147214381,2459,4,14,46190
1335479304,5812,228.7599945068359400,15.0085000991821290,34.4575004577636700,196.0187072753906200,331.1705932617187500,15.0073003768920900,34.3824501037597660,49,104,89,79,69,15268,2147728868,2147478528,2148139254,2147868891,2147591588,2147163629,2148262912,2147217024,682,3,14,23841
1335479443,5809,217.4900054931640600,15.3867998123168950,34.5171012878418000,214.1385955810547000,317.1348876953125000,15.4375400543212890,33.1169395446777340,49,107,89,81,69,15265,2147727405,2147496630,2148179392,2147872374,2147590628,2147184822,2148284141,2147221677,1044,3,15,58238
1335479585,5806,206.6499938964843800,16.5580997467041000,34.6516990661621100,220.5346069335937500,280.9802856445312500,16.5439205169677730,32.2495498657226560,49,107,88,81,68,15267,2147731721,2147521764,2148223616,2147874166,2147588379,2147207478,2148304301,2147221293,2182,3,14,62725
1335482180,5804,99.2799987792968800,23.2819004058837900,35.2719001770019500,236.6506042480468800,62.4259796142578100,23.2386703491210940,28.5490303039550780,87,123,94,83,59,15151,2172580425,2179164754,2181986779,2148535570,2157964169,2160931428,2161782070,2148556406,736,1,16,37063
1335482259,5809,97.0000000000000000,23.3715991973876950,35.2795982360839840,236.4024963378906200,58.7381401062011700,23.3526401519775400,28.5140590667724600,91,121,94,84,60,15148,2177055094,2184352914,2186989796,2148696603,2160368804,2163832356,2164341412,2148811190,986,1,16,63941
1335482349,5809,93.4400024414062500,23.4944992065429700,35.2882003784179700,235.3206024169922000,53.5960388183593750,23.5116500854492200,28.4993801116943360,84,122,96,84,62,15151,2183308790,2190906093,2192567835,2148932214,2163749211,2167632018,2167420982,2149122121,3561,1,17,52868
1335482404,5807,90.4300003051757800,23.8194007873535160,35.3129005432128900,236.3836059570312500,44.5942687988281250,23.7903194427490230,28.3379306793212900,74,122,94,83,59,15153,2187588050,2195265810,2196268297,2149134281,2166966016,2171233261,2170149110,2149393152,211,1,16,50287
1335482459,5808,87.4899978637695300,23.8591003417968750,35.3188018798828100,237.8377990722656200,43.3220481872558600,23.8297290802001950,28.2559604644775400,74,122,90,83,59,15152,2193081280,2201311497,2202152320,2149468790,2170714642,2175224676,2173199058,2149715364,87,2,16,2829
1335482514,5808,84.5299987792968800,23.9277000427246100,35.3251991271972660,238.5870056152343800,41.0460891723632800,23.9002609252929700,28.1937294006347660,72,122,93,85,60,15155,2200102592,2208937316,2209374317,2149838198,2175787748,2180874907,2177599734,2150150912,553,2,16,37312
1335482569,5808,81.7699966430664000,24.0580997467041000,35.3345985412597660,239.2546997070312500,36.5186500549316400,24.0406303405761720,28.1072998046875000,69,121,94,85,58,15155,2206133778,2215494866,2215709376,2150270016,2180873170,2186384960,2181730075,2150572150,1022,1,17,61550
1335482624,5809,79.3600006103515600,24.1026992797851560,35.3377990722656250,240.0390930175781200,34.7678604125976560,24.0949497222900400,28.0504302978515620,67,120,93,84,57,15161,2209682651,2218900269,2218700050,2150564132,2184629952,2190119405,2184300525,2150831158,598,2,16,21045
1335482682,5808,77.1500015258789000,24.1161003112792970,35.3392982482910160,240.7590026855468800,34.0697898864746100,24.1166000366210940,28.0095100402832030,69,120,94,84,58,15155,2214932763,2224751643,2224685513,2151060242,2189493440,2195153453,2187953225,2151210377,3442,1,16,64747
1335482737,5811,75.3099975585937500,24.1623992919921880,35.3339004516601560,240.8840942382812500,32.7633399963378900,24.1571502685546880,27.9877490997314450,66,121,94,84,56,15161,2218889910,2228708534,2228263396,2151436251,2193712338,2199219474,2190647369,2151483254,3138,2,16,44281
1335482792,5809,73.7399978637695300,24.1685009002685550,35.3284988403320300,241.0399017333984400,32.2442588806152340,24.1732597351074220,27.9743595123291000,65,121,95,85,58,15160,2223331593,2233391232,2232574208,2151927570,2198272246,2203991378,2193936045,2151806912,2921,1,17,47482
1335482847,5809,72.4199981689453100,24.2374000549316400,35.3311996459960940,241.0372009277343800,30.3361206054687500,24.2324905395507800,27.9507904052734380,66,124,94,86,58,15151,2226825618,2236795465,2235456228,2152180361,2202443913,2208111460,2196614884,2152087716,2568,1,16,35068
1335482950,5807,70.3300018310546900,24.2651996612548830,35.3293991088867200,241.5632019042968800,29.1473007202148440,24.2694091796875000,27.9127998352050780,66,125,94,85,55,15141,2234222409,2243721792,2241592246,2152929984,2210593142,2216351652,2202142308,2152645293,1342,2,16,4976
1335483040,5805,67.8600006103515600,24.3113002777099600,35.3045005798339840,242.2798004150390600,27.7859706878662100,24.3116893768310550,27.8642005920410160,64,125,96,87,60,15140,2245045275,2254541952,2251577554,2153914816,2220165705,2225532278,2208598811,2153381257,259,1,16,38000
1335483095,5808,65.8300018310546900,24.3451004028320300,35.2767982482910160,242.7566986083984400,26.7370891571044920,24.3442707061767580,27.8303508758544920,61,125,93,86,57,15128,2250250422,2258945453,2254758756,2154668233,2228065362,2232834523,2213218980,2153803968,3424,2,17,37265
1335483150,5810,64.0100021362304700,24.3913993835449220,35.2573013305664060,242.9485931396484400,25.1959800720214840,24.3921508789062500,27.8027095794677730,63,126,95,85,56,15127,2255703259,2263944155,2258612169,2155296265,2234742290,2238805193,2216997714,2154283520,2848,2,17,158
1335483217,5806,62.0499992370605500,24.3859996795654300,35.2445983886718750,243.2872924804687500,25.0583000183105470,24.3964290618896500,27.7860603332519530,60,127,94,86,57,15120,2264665645,2273139099,2267721371,2156676022,2244514669,2247891456,2222875008,2155017289,3003,1,17,42323
1335483284,5810,60.1699981689453100,24.3827991485595700,35.2214012145996100,243.8441925048828000,25.2131900787353500,24.3916091918945300,27.7636795043945300,60,126,94,84,59,15120,2272680384,2280625060,2274417993,2158125677,2253645778,2256031798,2228076690,2155636050,3325,2,17,30289
1335483362,5804,57.8199996948242200,24.4860000610351560,35.1507987976074200,243.4557037353515600,22.1769104003906250,24.4859905242919920,27.7431907653808600,57,123,96,85,57,15104,2280531766,2287527460,2279900461,2159420379,2266262107,2266886070,2234763474,2156456905,3561,1,17,51041
1335483417,5811,56.2000007629394500,24.5235996246337900,35.1390991210937500,242.9523010253906200,20.9606399536132800,24.5238094329834000,27.7503509521484380,57,127,93,86,58,15126,2285558198,2292972434,2285423689,2160885632,2273986294,2272829558,2237767872,2156880896,3467,1,16,29303
1335483484,5810,54.1500015258789060,24.5373001098632800,35.1371994018554700,242.8748016357422000,20.3782291412353500,24.5419197082519530,27.7467002868652340,58,124,97,86,56,15123,2294231350,2302197997,2294256429,2162916160,2290614592,2287127158,2247276288,2158024274,3094,2,16,26120
1335483551,5808,51.7700004577636700,24.5543003082275400,35.1385002136230500,242.5121002197265600,19.8736991882324220,24.5576095581054700,27.7562904357910160,57,123,90,85,57,15124,2303688283,2312395456,2303830884,2164930020,2306431332,2300906752,2255348580,2159098230,2565,1,17,47673
1335483606,5809,49.5800018310546900,24.5692996978759770,35.1394996643066400,242.3825988769531200,19.3249206542968750,24.5746803283691400,27.7553501129150400,57,123,95,84,60,15124,2311082733,2320131273,2311740544,2167941860,2319554413,2311764434,2261978825,2160226816,2312,1,17,8764
1335483684,5809,45.7799987792968750,24.5818004608154300,35.1399002075195300,242.2938995361328000,18.9966392517089840,24.5848903656005860,27.7551994323730470,55,123,93,85,57,15117,2324982857,2333671332,2324730230,2173644269,2349685997,2338471405,2278941138,2163083858,2002,1,16,17924
1335483739,5805,42.5000000000000000,24.5851001739501950,35.1397018432617200,242.3110961914062500,18.7930603027343750,24.5912303924560550,27.7519397735595700,55,122,93,86,58,15120,2344720173,2354979904,2346471350,2180715373,2375143835,2360672393,2292962514,2165491382,1846,1,16,16062
1335483794,5808,39.2200012207031250,24.5872001647949220,35.1385002136230500,242.3106994628906200,18.7137908935546880,24.5936908721923830,27.7509803771972660,54,123,93,85,59,15117,2364519634,2376934546,2369320137,2190235648,2406118189,2387851830,2310130633,2168723090,1886,1,16,1030
1335483849,5817,35.9399986267089840,24.5953006744384770,35.1385993957519500,242.3423004150390600,18.4006500244140620,24.6034297943115230,27.7458305358886720,53,123,92,86,59,15120,2385903085,2399759268,2394085705,2203432576,2429155026,2406633261,2321066048,2171890029,1779,1,17,32355
1335483904,5805,32.7400016784668000,24.6053009033203120,35.1366996765136700,242.2738952636718800,18.0566291809082030,24.6141395568847660,27.7444705963134770,52,122,92,83,57,15121,2395135369,2407582198,2402238070,2211758326,2462338852,2435961206,2341214820,2175940617,1642,1,16,61077
1335483959,5808,29.5900001525878900,24.6089992523193360,35.1357994079589840,242.2570953369140600,17.8505897521972660,24.6205501556396500,27.7426490783691400,52,122,92,86,58,15121,2431219273,2447767488,2446273700,2234034925,2504440502,2474157906,2366358793,2182282934,1340,2,16,21167
1335484017,5806,26.1499996185302730,24.6149005889892580,35.1351013183593750,242.3061981201172000,17.4648704528808600,24.6325492858886720,27.7359104156494140,53,121,90,87,56,15120,2435797430,2450443922,2448276662,2247202761,2537314340,2501247698,2382857526,2187139812,1393,0,17,2334
1335484072,5807,22.8299999237060550,24.6208000183105470,35.1346015930175800,242.3614959716797000,17.3011207580566400,24.6376495361328120,27.7314605712890620,52,120,92,84,57,15129,2476874514,2497385380,2500056960,2287196224,2584226459,2542684169,2409918802,2197046418,1616,1,16,39835
